Location: Olomouc
(49.5830°N, 17.2500°E)
Time: 04:43:08
(UTC+01:00)

ISS - Pass Details

Date: 02 November 2021
Orbit: 417 x 423 km, 51.6° (Epoch: 01 December)

Event Time Altitude Azimuth Distance (km) Brightness Sun altitude
Exits shadow 05:24:01 23° 291° (WNW) 949 -2.6 -12.9°
Maximum altitude 05:25:59 71° 13° (NNE) 447 -3.7 -12.6°
Drops below altitude 10° 05:29:20 10° 97° (E) 1,499 0.6 -12.1°
Sets 05:31:26 0° 100° (E) 2,360 2.3 -11.7°
